Colwood, British Columbia

6:02 AM PST on February 22, 2017 (GMT -0800)
Esquimalt Harbour

Weather History for CWPF - January, 2014

Change the Weather History Date:

Tuesday, January 14, 2014

  Actual Average (CYWH) Record (CYWH)
Temperature  
Mean Temperature 48 °F -  
Max Temperature 51 °F 44 °F 53 °F (2003)
Min Temperature 45 °F 39 °F 28 °F (1997)
Degree Days  
Heating Degree Days 17    
Moisture  
Dew Point 44 °F    
Average Humidity 86    
Maximum Humidity 98    
Minimum Humidity 75    
Precipitation  
Precipitation 0.00 in - - ()
Sea Level Pressure  
Sea Level Pressure 30.61 in    
Wind  
Wind Speed 9 mph ()    
Max Wind Speed 16 mph    
Max Gust Speed 21 mph    
Averages and records for this station are not official NWS values.
T = Trace of Precipitation, MM = Missing Value Source: Averaged Metar Reports

Daily Weather History Graph

Daily Weather History Graph

Search for Another Location

Airport or City:

Trip Planner

Search our weather history database for the weather conditions in past years. The results will help you decide how hot, cold, wet, or windy it might be!

Date:

Astronomy

Jan. 14, 2014 Rise Set
Actual Time 8:00 AM PST 4:45 PM PST
Civil Twilight 7:25 AM PST 5:20 PM PST
Nautical Twilight 6:46 AM PST 5:59 PM PST
Astronomical Twilight 6:08 AM PST 6:37 PM PST
Moon 3:58 PM PST (1/14) 6:37 AM PST (1/14)
Length of Visible Light 9h 55m
Length of Day
8h 44m
Waxing Gibbous, 98% of the Moon is Illuminated
Jan 14
Waxing Gibbous
Jan 15
Full
Jan 23
Last Quarter
Jan 30
New
Feb 6
First Quarter

Hourly Weather History & Observations

Time (PST) Temp. Windchill Dew Point Humidity Pressure Visibility Wind Dir Wind Speed Gust Speed Precip Events Conditions
12:00 AM 50.5 °F - 45.5 °F 83% 30.58 in - SSW 16.1 mph - N/A   Unknown
1:00 AM 50.4 °F - 45.7 °F 84% 30.58 in - SW 15.0 mph 20.7 mph N/A   Unknown
2:00 AM 50.2 °F - 45.9 °F 85% 30.60 in - SSW 8.1 mph - N/A   Unknown
3:00 AM 50.0 °F - 45.3 °F 84% 30.61 in - South 9.2 mph - N/A   Unknown
4:00 AM 48.0 °F - 45.1 °F 90% 30.63 in - SSE 10.4 mph - N/A   Unknown
5:00 AM 47.8 °F - 45.1 °F 90% 30.63 in - SSE 15.0 mph - N/A   Unknown
6:00 AM 45.5 °F 40.8 °F 45.0 °F 98% 30.64 in - SSE 9.2 mph - N/A   Unknown
7:00 AM 47.7 °F - 45.1 °F 91% 30.64 in - SSE 13.8 mph - N/A   Unknown
8:00 AM 45.5 °F 39.9 °F 45.0 °F 98% 30.64 in - South 11.5 mph - N/A   Unknown
9:00 AM 46.9 °F - 45.0 °F 93% 30.63 in - South 10.4 mph - N/A   Unknown
10:00 AM 47.3 °F - 45.3 °F 93% 30.65 in - SSE 5.8 mph - N/A   Unknown
11:00 AM 48.6 °F - 44.6 °F 86% 30.64 in - SSE 10.4 mph - N/A   Unknown
12:00 PM 48.0 °F - 44.8 °F 89% 30.63 in - SSE 10.4 mph - N/A   Unknown
1:00 PM 48.7 °F - 44.6 °F 86% 30.62 in - SSE 9.2 mph - N/A   Unknown
2:00 PM 47.3 °F - 45.1 °F 92% 30.60 in - SE 5.8 mph - N/A   Unknown
3:00 PM 51.8 °F - 44.2 °F 75% 30.60 in - SW 6.9 mph - N/A   Unknown
4:00 PM 49.1 °F - 44.4 °F 84% 30.60 in - SW 6.9 mph - N/A   Unknown
5:00 PM 49.3 °F - 41.9 °F 76% 30.61 in - SSW 3.5 mph - N/A   Unknown
6:00 PM 48.7 °F - 43.9 °F 83% 30.59 in - ESE 2.3 mph - N/A   Unknown
7:00 PM 48.4 °F - 41.9 °F 78% 30.59 in - SSE 2.3 mph - N/A   Unknown
8:00 PM 47.5 °F - 43.3 °F 86% 30.57 in - SE 3.5 mph - N/A   Unknown
9:00 PM 47.7 °F - 42.1 °F 81% 30.56 in - South 2.3 mph - N/A   Unknown
10:00 PM 46.8 °F - 42.8 °F 86% 30.57 in - ENE 1.2 mph - N/A   Unknown
11:00 PM 48.7 °F - 41.5 °F 76% 30.56 in - South 5.8 mph - N/A   Unknown